Location: Unspecified
(51.6460°N, 0.0000°E)
Time: 13:50:40
(UTC+00:00)

CZ-6A DEB - Visible Passes

Search period start: 04 April 2026 00:00
Search period end: 14 April 2026 00:00
Orbit: 750 x 844 km, 88.6° (Epoch: 28 March)

Date Brightness Start Highest point End Pass type
(mag) Time Alt. Az. Time Alt. Az. Time Alt. Az.
4 Apr ? 03:50:30 10° SSE 03:55:30 53° E 04:00:40 10° N visible
5 Apr ? 03:23:11 10° SE 03:27:51 35° ENE 03:32:39 10° NNE visible
6 Apr ? 02:56:11 10° SE 03:00:17 24° ENE 03:04:28 10° NNE visible
6 Apr ? 04:35:37 10° SSW 04:40:42 58° W 04:46:00 10° N visible
7 Apr ? 02:29:37 10° ESE 02:32:47 16° ENE 02:35:59 10° NNE visible
7 Apr ? 04:07:38 10° S 04:12:51 88° W 04:18:14 10° N visible
8 Apr ? 02:04:09 10° ENE 02:05:22 11° ENE 02:06:37 10° NE visible
8 Apr ? 03:39:57 10° SSE 03:45:04 62° E 03:50:22 10° N visible
9 Apr ? 03:12:30 10° SSE 03:17:22 41° E 03:22:22 10° NNE visible
10 Apr ? 02:45:22 10° SE 02:49:45 28° ENE 02:54:14 10° NNE visible
10 Apr ? 04:25:13 10° SSW 04:30:18 51° W 04:35:34 10° N visible
11 Apr ? 02:18:36 10° ESE 02:22:13 19° ENE 02:25:52 10° NNE visible
11 Apr ? 03:57:08 10° S 04:02:23 77° W 04:07:49 10° N visible
12 Apr ? 01:52:30 10° E 01:54:45 13° ENE 01:57:00 10° NE visible
12 Apr ? 03:29:20 10° S 03:34:33 71° E 03:39:58 10° N visible
13 Apr ? 03:01:47 10° SSE 03:06:49 47° E 03:12:00 10° N visible
